18:34 MESZ | 31.08.2026 Profi-Wetter| Mobile Seite| Kontakt| Impressum| Datenschutz
Social

Wetterstation Braunschweig

Messwerte
  Temperatur Wetter Niederschlag Luftdruck Wind
Mo, 18:20 Uhr 19° - 1011 hPa 14 km/h SW
Mo, 17:50 Uhr 19° - 1011 hPa 13 km/h SW
Mo, 17:20 Uhr 19° - 1011 hPa 14 km/h SW
Mo, 16:50 Uhr 18° - 1010 hPa 27 km/h W

Böen 51 km/h
Mo, 16:20 Uhr 22° - 1010 hPa 23 km/h W
Mo, 15:50 Uhr 23° - - 1010 hPa 23 km/h SW
Mo, 15:20 Uhr 20° - 1010 hPa 19 km/h SW
Mo, 14:50 Uhr 23° - 1010 hPa 23 km/h SW
Mo, 14:20 Uhr 24° - 1010 hPa 23 km/h SW
Mo, 13:50 Uhr 22° - 1010 hPa 13 km/h W
Mo, 13:20 Uhr 24° - 1010 hPa 19 km/h SW
Mo, 12:50 Uhr 23° - 1010 hPa 21 km/h SW
Mo, 12:20 Uhr 23° - 1010 hPa 26 km/h SW
Mo, 11:50 Uhr 22° - 1010 hPa 23 km/h W
Mo, 11:20 Uhr 21° - 1011 hPa 24 km/h SW

Böen 47 km/h
Mo, 10:50 Uhr 20° - 1011 hPa 16 km/h SW
Mo, 10:20 Uhr 21° - 1011 hPa 21 km/h SW
Mo, 09:50 Uhr 19° - 1011 hPa 21 km/h SW
Mo, 09:20 Uhr 21° - - 1010 hPa 21 km/h SW
Mo, 08:50 Uhr 20° - - 1010 hPa 14 km/h SW

Alle Zeitangaben MESZ